| time (UTC) | temp F | wind direction | speed MPH | gust MPH | rain 1hr in | rain 24hr in | rain mn in | humidity % | barometer mb |
| 20260901055925 | 63 | 154 | 0.0 | 0.0 | 0.00 | 0.00 | 0.00 | 24 | 1012.0 |
| 20260901055424 | 62 | 161 | 0.0 | 0.0 | 0.00 | 0.00 | 0.00 | 24 | 1012.0 |
| 20260901054926 | 62 | 160 | 0.0 | 0.0 | 0.00 | 0.00 | 0.00 | 24 | 1012.0 |
| 20260901054425 | 62 | 164 | 0.0 | 0.0 | 0.00 | 0.00 | 0.00 | 24 | 1012.0 |
| 20260901053925 | 62 | 148 | 0.0 | 0.0 | 0.00 | 0.00 | 0.00 | 24 | 1012.0 |
| 20260901053424 | 62 | 165 | 0.0 | 0.0 | 0.00 | 0.00 | 0.00 | 25 | 1012.0 |
| 20260901052924 | 62 | 144 | 0.0 | 0.0 | 0.00 | 0.00 | 0.00 | 18 | 1012.0 |
| 20260901045926 | 62 | 155 | 0.0 | 0.0 | 0.00 | 0.00 | 0.00 | 29 | 1012.0 |
| 20260901044925 | 63 | 164 | 0.0 | 0.0 | 0.00 | 0.00 | 0.00 | 31 | 1012.0 |
| 20260901044425 | 63 | 160 | 0.0 | 0.0 | 0.00 | 0.00 | 0.00 | 33 | 1012.0 |
| 20260901043925 | 63 | 169 | 0.0 | 0.0 | 0.00 | 0.00 | 0.00 | 33 | 1012.0 |
| 20260901043426 | 63 | 151 | 0.0 | 0.0 | 0.00 | 0.00 | 0.00 | 34 | 1012.0 |
| 20260901042925 | 63 | 148 | 0.0 | 0.0 | 0.00 | 0.00 | 0.00 | 33 | 1012.0 |
| 20260901042423 | 63 | 161 | 0.0 | 0.0 | 0.00 | 0.00 | 0.00 | 31 | 1012.0 |
| 20260901041925 | 62 | 167 | 0.0 | 0.0 | 0.00 | 0.00 | 0.00 | 26 | 1012.0 |
| 20260901040926 | 62 | 168 | 0.0 | 0.0 | 0.00 | 0.00 | 0.00 | 25 | 1012.0 |
| 20260901040424 | 62 | 161 | 0.0 | 0.0 | 0.00 | 0.00 | 0.00 | 21 | 1012.0 |
| 20260901035925 | 62 | 160 | 0.0 | 0.0 | 0.00 | 0.00 | 0.00 | 23 | 1012.0 |
| 20260901035423 | 62 | 146 | 0.0 | 0.0 | 0.00 | 0.00 | 0.00 | 21 | 1012.0 |
| 20260901034925 | 62 | 155 | 0.0 | 0.0 | 0.00 | 0.00 | 0.00 | 21 | 1012.0 |
| 20260901034423 | 62 | 169 | 0.0 | 0.0 | 0.00 | 0.00 | 0.00 | 25 | 1012.0 |
| 20260901033925 | 62 | 144 | 0.0 | 0.0 | 0.00 | 0.00 | 0.00 | 10 | 1012.0 |
| 20260901033423 | 62 | 161 | 0.0 | 0.0 | 0.00 | 0.00 | 0.00 | 10 | 1012.0 |
| 20260901032923 | 62 | 169 | 0.0 | 0.0 | 0.00 | 0.00 | 0.00 | 10 | 1012.0 |
| 20260901032423 | 62 | 151 | 0.0 | 0.0 | 0.00 | 0.00 | 0.00 | 10 | 1012.0 |
| 20260901031923 | 62 | 157 | 0.0 | 0.0 | 0.00 | 0.00 | 0.00 | 16 | 1012.0 |
| 20260901031423 | 62 | 143 | 0.0 | 0.0 | 0.00 | 0.00 | 0.00 | 10 | 1012.0 |
| 20260901030928 | 62 | 146 | 0.0 | 0.0 | 0.00 | 0.00 | 0.00 | 10 | 1012.0 |
| 20260901030424 | 62 | 144 | 0.0 | 0.0 | 0.00 | 0.00 | 0.00 | 10 | 1012.0 |
| 20260901025926 | 62 | 169 | 0.0 | 0.0 | 0.00 | 0.00 | 0.00 | 10 | 1012.0 |
| 20260901025423 | 62 | 168 | 0.0 | 0.0 | 0.00 | 0.00 | 0.00 | 10 | 1012.0 |
| 20260901024925 | 62 | 160 | 0.0 | 0.0 | 0.00 | 0.00 | 0.00 | 10 | 1012.0 |
| 20260901024423 | 62 | 142 | 0.0 | 0.0 | 0.00 | 0.00 | 0.00 | 10 | 1012.0 |
| 20260901023923 | 62 | 158 | 0.0 | 0.0 | 0.00 | 0.00 | 0.00 | 10 | 1012.0 |
| 20260901023425 | 62 | 141 | 0.0 | 0.0 | 0.00 | 0.00 | 0.00 | 10 | 1012.0 |
| 20260901022925 | 62 | 157 | 0.0 | 0.0 | 0.00 | 0.00 | 0.00 | 10 | 1012.0 |
| 20260901022424 | 62 | 168 | 0.0 | 0.0 | 0.00 | 0.00 | 0.00 | 10 | 1012.0 |
| 20260901021924 | 62 | 161 | 0.0 | 0.0 | 0.00 | 0.00 | 0.00 | 10 | 1012.0 |
| 20260901021425 | 62 | 151 | 0.0 | 0.0 | 0.00 | 0.00 | 0.00 | 10 | 1012.0 |
| 20260901020925 | 62 | 142 | 0.0 | 0.0 | 0.00 | 0.00 | 0.00 | 10 | 1012.0 |
| 20260901020426 | 62 | 164 | 0.0 | 0.0 | 0.00 | 0.00 | 0.00 | 10 | 1012.0 |
| 20260901015926 | 62 | 167 | 0.0 | 0.0 | 0.00 | 0.00 | 0.00 | 10 | 1012.0 |
| 20260901015425 | 62 | 152 | 0.0 | 0.0 | 0.00 | 0.00 | 0.00 | 10 | 1013.0 |
| 20260901014926 | 62 | 164 | 0.0 | 0.0 | 0.00 | 0.00 | 0.00 | 10 | 1013.0 |
| 20260901014426 | 62 | 161 | 0.0 | 0.0 | 0.00 | 0.00 | 0.00 | 10 | 1013.0 |
| 20260901013925 | 62 | 150 | 0.0 | 0.0 | 0.00 | 0.00 | 0.00 | 11 | 1012.0 |
| 20260901013426 | 62 | 155 | 0.0 | 0.0 | 0.00 | 0.00 | 0.00 | 16 | 1012.0 |
| 20260901012925 | 62 | 164 | 0.0 | 0.0 | 0.00 | 0.00 | 0.00 | 16 | 1012.0 |
| 20260901012426 | 62 | 165 | 0.0 | 0.0 | 0.00 | 0.00 | 0.00 | 16 | 1012.0 |
| 20260901011925 | 63 | 144 | 0.0 | 0.0 | 0.00 | 0.00 | 0.00 | 16 | 1012.0 |
| 20260901010925 | 63 | 144 | 0.0 | 0.0 | 0.00 | 0.00 | 0.00 | 16 | 1012.0 |
| 20260901010425 | 63 | 164 | 0.0 | 0.0 | 0.00 | 0.00 | 0.00 | 16 | 1012.0 |
| 20260901005925 | 63 | 159 | 0.0 | 0.0 | 0.00 | 0.00 | 0.00 | 16 | 1012.0 |
| 20260901005427 | 63 | 161 | 0.0 | 0.0 | 0.00 | 0.00 | 0.00 | 16 | 1012.0 |
| 20260901004925 | 63 | 169 | 0.0 | 0.0 | 0.00 | 0.00 | 0.00 | 16 | 1012.0 |
| 20260901003925 | 63 | 147 | 0.0 | 0.0 | 0.00 | 0.00 | 0.00 | 16 | 1012.0 |
| 20260901003426 | 63 | 143 | 0.0 | 0.0 | 0.00 | 0.00 | 0.00 | 16 | 1012.0 |
| 20260901002925 | 63 | 150 | 0.0 | 0.0 | 0.00 | 0.00 | 0.00 | 16 | 1012.0 |
| 20260901002425 | 63 | 160 | 0.0 | 0.0 | 0.00 | 0.00 | 0.00 | 16 | 1012.0 |
| 20260901001425 | 63 | 168 | 0.0 | 0.0 | 0.00 | 0.00 | 0.00 | 16 | 1012.0 |
| 20260901000923 | 63 | 169 | 0.0 | 0.0 | 0.00 | 0.00 | 0.00 | 16 | 1012.0 |
| 20260901000427 | 63 | 145 | 0.0 | 0.0 | 0.00 | 0.00 | 0.00 | 16 | 1012.0 |
| 20260831235923 | 63 | 144 | 0.0 | 0.0 | 0.00 | 0.00 | 0.00 | 16 | 1012.0 |
| 20260831235426 | 63 | 142 | 0.0 | 0.0 | 0.00 | 0.00 | 0.00 | 16 | 1012.0 |
| 20260831234925 | 63 | 158 | 0.0 | 0.0 | 0.00 | 0.00 | 0.00 | 16 | 1012.0 |
| 20260831234426 | 63 | 153 | 0.0 | 0.0 | 0.00 | 0.00 | 0.00 | 16 | 1012.0 |
| 20260831233923 | 63 | 161 | 0.0 | 0.0 | 0.00 | 0.00 | 0.00 | 16 | 1012.0 |
| 20260831233425 | 63 | 169 | 0.0 | 0.0 | 0.00 | 0.00 | 0.00 | 15 | 1012.0 |
| 20260831232923 | 63 | 169 | 0.0 | 0.0 | 0.00 | 0.00 | 0.00 | 15 | 1012.0 |
| 20260831232427 | 63 | 159 | 0.0 | 0.0 | 0.00 | 0.00 | 0.00 | 15 | 1012.0 |
| 20260831231923 | 63 | 169 | 0.0 | 0.0 | 0.00 | 0.00 | 0.00 | 15 | 1012.0 |
| 20260831231425 | 63 | 144 | 0.0 | 0.0 | 0.00 | 0.00 | 0.00 | 15 | 1012.0 |
| 20260831230925 | 63 | 164 | 0.0 | 0.0 | 0.00 | 0.00 | 0.00 | 15 | 1012.0 |
| 20260831230426 | 63 | 155 | 0.0 | 0.0 | 0.00 | 0.00 | 0.00 | 15 | 1012.0 |
| 20260831225926 | 63 | 145 | 0.0 | 0.0 | 0.00 | 0.00 | 0.00 | 16 | 1012.0 |
| 20260831225426 | 63 | 168 | 0.0 | 0.0 | 0.00 | 0.00 | 0.00 | 16 | 1012.0 |
| 20260831224925 | 62 | 159 | 0.0 | 0.0 | 0.00 | 0.00 | 0.00 | 13 | 1012.0 |
| 20260831224425 | 62 | 169 | 0.0 | 0.0 | 0.00 | 0.00 | 0.00 | 13 | 1012.0 |
| 20260831223925 | 63 | 169 | 0.0 | 0.0 | 0.00 | 0.00 | 0.00 | 13 | 1012.0 |
| 20260831223425 | 63 | 145 | 0.0 | 0.0 | 0.00 | 0.00 | 0.00 | 13 | 1012.0 |
| 20260831222923 | 63 | 169 | 0.0 | 0.0 | 0.00 | 0.00 | 0.00 | 13 | 1012.0 |
| 20260831222425 | 62 | 167 | 0.0 | 0.0 | 0.00 | 0.00 | 0.00 | 13 | 1013.0 |
| 20260831221923 | 63 | 168 | 0.0 | 0.0 | 0.00 | 0.00 | 0.00 | 13 | 1013.0 |
| 20260831221423 | 63 | 153 | 0.0 | 0.0 | 0.00 | 0.00 | 0.00 | 13 | 1013.0 |
| 20260831220923 | 63 | 146 | 0.0 | 0.0 | 0.00 | 0.00 | 0.00 | 11 | 1013.0 |
| 20260831220423 | 63 | 153 | 0.0 | 0.0 | 0.00 | 0.00 | 0.00 | 10 | 1013.0 |
| 20260831215923 | 63 | 152 | 0.0 | 0.0 | 0.00 | 0.00 | 0.00 | 10 | 1013.0 |
| 20260831215423 | 63 | 142 | 0.0 | 0.0 | 0.00 | 0.00 | 0.00 | 10 | 1013.0 |
| 20260831214423 | 63 | 152 | 0.0 | 0.0 | 0.00 | 0.00 | 0.00 | 10 | 1013.0 |
| 20260831213923 | 64 | 155 | 0.0 | 0.0 | 0.00 | 0.00 | 0.00 | 10 | 1013.0 |
| 20260831212925 | 64 | 169 | 0.0 | 0.0 | 0.00 | 0.00 | 0.00 | 10 | 1013.0 |
| 20260831202923 | 64 | 168 | 0.0 | 0.0 | 0.00 | 0.00 | 0.00 | 10 | 1012.0 |
| 20260831200923 | 65 | 154 | 0.0 | 0.0 | 0.00 | 0.00 | 0.00 | 10 | 1012.0 |
| 20260831200424 | 65 | 147 | 0.0 | 0.0 | 0.00 | 0.00 | 0.00 | 10 | 1012.0 |
| 20260831195425 | 65 | 162 | 0.0 | 0.0 | 0.00 | 0.00 | 0.00 | 10 | 1012.0 |
| 20260831194923 | 65 | 158 | 0.0 | 0.0 | 0.00 | 0.00 | 0.00 | 10 | 1012.0 |
| 20260831194425 | 65 | 167 | 0.0 | 0.0 | 0.00 | 0.00 | 0.00 | 10 | 1012.0 |
| 20260831193923 | 65 | 164 | 0.0 | 0.0 | 0.00 | 0.00 | 0.00 | 10 | 1012.0 |
| 20260831193423 | 65 | 148 | 0.0 | 0.0 | 0.00 | 0.00 | 0.00 | 10 | 1012.0 |
| 20260831192923 | 65 | 141 | 0.0 | 0.0 | 0.00 | 0.00 | 0.00 | 10 | 1012.0 |
| 20260831192423 | 65 | 167 | 0.0 | 0.0 | 0.00 | 0.00 | 0.00 | 10 | 1012.0 |
| 20260831191923 | 65 | 161 | 0.0 | 0.0 | 0.00 | 0.00 | 0.00 | 10 | 1012.0 |
| 20260831191424 | 65 | 147 | 0.0 | 0.0 | 0.00 | 0.00 | 0.00 | 10 | 1012.0 |
| 20260831190925 | 66 | 145 | 0.0 | 0.0 | 0.00 | 0.00 | 0.00 | 10 | 1012.0 |
| 20260831190423 | 66 | 141 | 0.0 | 0.0 | 0.00 | 0.00 | 0.00 | 10 | 1012.0 |
| 20260831185927 | 66 | 168 | 0.0 | 0.0 | 0.00 | 0.00 | 0.00 | 10 | 1012.0 |
| 20260831185423 | 66 | 149 | 0.0 | 0.0 | 0.00 | 0.00 | 0.00 | 10 | 1012.0 |
| 20260831184923 | 66 | 141 | 0.0 | 0.0 | 0.00 | 0.00 | 0.00 | 10 | 1012.0 |
| 20260831184423 | 66 | 144 | 0.0 | 0.0 | 0.00 | 0.00 | 0.00 | 10 | 1012.0 |
| 20260831183923 | 67 | 161 | 0.0 | 0.0 | 0.00 | 0.00 | 0.00 | 10 | 1012.0 |
| 20260831183423 | 67 | 142 | 0.0 | 0.0 | 0.00 | 0.00 | 0.00 | 10 | 1012.0 |
| 20260831182923 | 67 | 167 | 0.0 | 0.0 | 0.00 | 0.00 | 0.00 | 10 | 1012.0 |
| 20260831182423 | 67 | 161 | 0.0 | 0.0 | 0.00 | 0.00 | 0.00 | 10 | 1012.0 |
| 20260831181923 | 67 | 144 | 0.0 | 0.0 | 0.00 | 0.00 | 0.00 | 10 | 1012.0 |
| 20260831181423 | 68 | 142 | 0.0 | 0.0 | 0.00 | 0.00 | 0.00 | 10 | 1012.0 |
| 20260831180923 | 68 | 166 | 0.0 | 0.0 | 0.00 | 0.00 | 0.00 | 10 | 1012.0 |
| 20260831180423 | 68 | 142 | 0.0 | 0.0 | 0.00 | 0.00 | 0.00 | 10 | 1012.0 |
| 20260831175923 | 68 | 145 | 0.0 | 0.0 | 0.00 | 0.00 | 0.00 | 10 | 1012.0 |
| 20260831175423 | 68 | 152 | 0.0 | 0.0 | 0.00 | 0.00 | 0.00 | 10 | 1012.0 |
| 20260831174923 | 69 | 164 | 0.0 | 0.0 | 0.00 | 0.00 | 0.00 | 10 | 1012.0 |
| 20260831174423 | 69 | 166 | 0.0 | 0.0 | 0.00 | 0.00 | 0.00 | 10 | 1012.0 |
| 20260831173927 | 69 | 143 | 0.0 | 0.0 | 0.00 | 0.00 | 0.00 | 10 | 1012.0 |
| 20260831172927 | 70 | 142 | 0.0 | 0.0 | 0.00 | 0.00 | 0.00 | 12 | 1012.0 |
| 20260831172423 | 71 | 156 | 0.0 | 0.0 | 0.00 | 0.00 | 0.00 | 11 | 1012.0 |
| 20260831171923 | 71 | 155 | 0.0 | 0.0 | 0.00 | 0.00 | 0.00 | 11 | 1012.0 |
| 20260831171423 | 73 | 164 | 0.0 | 0.0 | 0.00 | 0.00 | 0.00 | 13 | 1012.0 |
| 20260831170926 | 74 | 159 | 0.0 | 0.0 | 0.00 | 0.00 | 0.00 | 13 | 1012.0 |
| 20260831165927 | 78 | 168 | 0.0 | 0.0 | 0.00 | 0.00 | 0.00 | 12 | 1012.0 |
| 20260831165427 | 79 | 156 | 0.0 | 0.0 | 0.00 | 0.00 | 0.00 | 12 | 1012.0 |
| 20260831164923 | 79 | 155 | 0.0 | 0.0 | 0.00 | 0.00 | 0.00 | 12 | 1012.0 |
| 20260831164423 | 79 | 157 | 0.0 | 0.0 | 0.00 | 0.00 | 0.00 | 12 | 1012.0 |
| 20260831163926 | 80 | 167 | 0.0 | 0.0 | 0.00 | 0.00 | 0.00 | 12 | 1012.0 |
| 20260831163423 | 79 | 155 | 0.0 | 0.0 | 0.00 | 0.00 | 0.00 | 12 | 1012.0 |
| 20260831162926 | 79 | 143 | 0.0 | 0.0 | 0.00 | 0.00 | 0.00 | 12 | 1012.0 |
| 20260831162427 | 79 | 141 | 0.0 | 0.0 | 0.00 | 0.00 | 0.00 | 12 | 1012.0 |
| 20260831161926 | 79 | 146 | 0.0 | 0.0 | 0.00 | 0.00 | 0.00 | 12 | 1012.0 |
| 20260831161423 | 78 | 141 | 0.0 | 0.0 | 0.00 | 0.00 | 0.00 | 12 | 1012.0 |
| 20260831160928 | 78 | 168 | 0.0 | 0.0 | 0.00 | 0.00 | 0.00 | 12 | 1012.0 |
| 20260831160423 | 78 | 167 | 0.0 | 0.0 | 0.00 | 0.00 | 0.00 | 12 | 1012.0 |
| 20260831155926 | 78 | 152 | 0.0 | 0.0 | 0.00 | 0.00 | 0.00 | 12 | 1012.0 |
| 20260831155427 | 79 | 151 | 0.0 | 0.0 | 0.00 | 0.00 | 0.00 | 12 | 1012.0 |
| 20260831154928 | 79 | 143 | 0.0 | 0.0 | 0.00 | 0.00 | 0.00 | 12 | 1012.0 |
| 20260831154423 | 78 | 144 | 0.0 | 0.0 | 0.00 | 0.00 | 0.00 | 12 | 1012.0 |
| 20260831153927 | 78 | 142 | 0.0 | 0.0 | 0.00 | 0.00 | 0.00 | 12 | 1012.0 |
| 20260831153423 | 78 | 144 | 0.0 | 0.0 | 0.00 | 0.00 | 0.00 | 12 | 1012.0 |
| 20260831152926 | 79 | 143 | 0.0 | 0.0 | 0.00 | 0.00 | 0.00 | 12 | 1012.0 |
| 20260831152423 | 78 | 154 | 0.0 | 0.0 | 0.00 | 0.00 | 0.00 | 12 | 1012.0 |
| 20260831151426 | 78 | 161 | 0.0 | 0.0 | 0.00 | 0.00 | 0.00 | 12 | 1012.0 |
| 20260831150923 | 78 | 168 | 0.0 | 0.0 | 0.00 | 0.00 | 0.00 | 12 | 1012.0 |
| 20260831150426 | 78 | 141 | 0.0 | 0.0 | 0.00 | 0.00 | 0.00 | 12 | 1012.0 |
| 20260831145928 | 78 | 155 | 0.0 | 0.0 | 0.00 | 0.00 | 0.00 | 12 | 1012.0 |
| 20260831145423 | 78 | 157 | 0.0 | 0.0 | 0.00 | 0.00 | 0.00 | 12 | 1012.0 |
| 20260831144423 | 78 | 169 | 0.0 | 0.0 | 0.00 | 0.00 | 0.00 | 12 | 1012.0 |
| 20260831143923 | 78 | 155 | 0.0 | 0.0 | 0.00 | 0.00 | 0.00 | 12 | 1012.0 |
| 20260831143423 | 78 | 155 | 0.0 | 0.0 | 0.00 | 0.00 | 0.00 | 12 | 1012.0 |
| 20260831142928 | 78 | 145 | 0.0 | 0.0 | 0.00 | 0.00 | 0.00 | 12 | 1012.0 |
| 20260831142423 | 78 | 154 | 0.0 | 0.0 | 0.00 | 0.00 | 0.00 | 12 | 1012.0 |
| 20260831141926 | 78 | 144 | 0.0 | 0.0 | 0.00 | 0.00 | 0.00 | 12 | 1012.0 |
| 20260831141426 | 78 | 150 | 0.0 | 0.0 | 0.00 | 0.00 | 0.00 | 12 | 1012.0 |
| 20260831140923 | 77 | 153 | 0.0 | 0.0 | 0.00 | 0.00 | 0.00 | 13 | 1012.0 |
| 20260831140425 | 78 | 161 | 0.0 | 0.0 | 0.00 | 0.00 | 0.00 | 12 | 1012.0 |
| 20260831135923 | 78 | 168 | 0.0 | 0.0 | 0.00 | 0.00 | 0.00 | 12 | 1012.0 |
| 20260831135431 | 79 | 169 | 0.0 | 0.0 | 0.00 | 0.00 | 0.00 | 12 | 1012.0 |
| 20260831134924 | 79 | 169 | 0.0 | 0.0 | 0.00 | 0.00 | 0.00 | 12 | 1012.0 |
| 20260831134427 | 79 | 149 | 0.0 | 0.0 | 0.00 | 0.00 | 0.00 | 12 | 1012.0 |
| 20260831133924 | 78 | 146 | 0.0 | 0.0 | 0.00 | 0.00 | 0.00 | 12 | 1012.0 |
| 20260831133424 | 79 | 168 | 0.0 | 0.0 | 0.00 | 0.00 | 0.00 | 12 | 1012.0 |
| 20260831132924 | 79 | 152 | 0.0 | 0.0 | 0.00 | 0.00 | 0.00 | 12 | 1012.0 |
| 20260831132424 | 78 | 149 | 0.0 | 0.0 | 0.00 | 0.00 | 0.00 | 12 | 1012.0 |
| 20260831131923 | 78 | 160 | 0.0 | 0.0 | 0.00 | 0.00 | 0.00 | 12 | 1012.0 |
| 20260831131423 | 78 | 167 | 0.0 | 0.0 | 0.00 | 0.00 | 0.00 | 12 | 1012.0 |
| 20260831130923 | 78 | 163 | 0.0 | 0.0 | 0.00 | 0.00 | 0.00 | 12 | 1012.0 |
| 20260831125423 | 79 | 146 | 0.0 | 0.0 | 0.00 | 0.00 | 0.00 | 12 | 1012.0 |
| 20260831124923 | 79 | 145 | 0.0 | 0.0 | 0.00 | 0.00 | 0.00 | 12 | 1012.0 |
| 20260831124423 | 79 | 152 | 0.0 | 0.0 | 0.00 | 0.00 | 0.00 | 12 | 1012.0 |
| 20260831123923 | 79 | 155 | 0.0 | 0.0 | 0.00 | 0.00 | 0.00 | 12 | 1012.0 |
| 20260831123423 | 78 | 159 | 0.0 | 0.0 | 0.00 | 0.00 | 0.00 | 12 | 1012.0 |
| 20260831122423 | 79 | 150 | 0.0 | 0.0 | 0.00 | 0.00 | 0.00 | 12 | 1012.0 |
| 20260831121923 | 79 | 168 | 0.0 | 0.0 | 0.00 | 0.00 | 0.00 | 12 | 1012.0 |
| 20260831120924 | 79 | 142 | 0.0 | 0.0 | 0.00 | 0.00 | 0.00 | 12 | 1013.0 |
| 20260831115424 | 79 | 164 | 0.0 | 0.0 | 0.00 | 0.00 | 0.00 | 12 | 1012.0 |
| 20260831114923 | 78 | 143 | 0.0 | 0.0 | 0.00 | 0.00 | 0.00 | 12 | 1012.0 |
| 20260831114424 | 78 | 158 | 0.0 | 0.0 | 0.00 | 0.00 | 0.00 | 12 | 1012.0 |
| 20260831113924 | 78 | 149 | 0.0 | 0.0 | 0.00 | 0.00 | 0.00 | 12 | 1012.0 |
| 20260831113424 | 78 | 157 | 0.0 | 0.0 | 0.00 | 0.00 | 0.00 | 12 | 1012.0 |
| 20260831112924 | 78 | 156 | 0.0 | 0.0 | 0.00 | 0.00 | 0.00 | 12 | 1012.0 |
| 20260831112424 | 78 | 142 | 0.0 | 0.0 | 0.00 | 0.00 | 0.00 | 12 | 1012.0 |
| 20260831111924 | 78 | 155 | 0.0 | 0.0 | 0.00 | 0.00 | 0.00 | 12 | 1012.0 |
| 20260831111423 | 79 | 168 | 0.0 | 0.0 | 0.00 | 0.00 | 0.00 | 12 | 1012.0 |
| 20260831110923 | 79 | 141 | 0.0 | 0.0 | 0.00 | 0.00 | 0.00 | 12 | 1013.0 |
| 20260831110423 | 79 | 166 | 0.0 | 0.0 | 0.00 | 0.00 | 0.00 | 12 | 1013.0 |
| 20260831105926 | 79 | 143 | 0.0 | 0.0 | 0.00 | 0.00 | 0.00 | 12 | 1013.0 |
| 20260831104923 | 78 | 165 | 0.0 | 0.0 | 0.00 | 0.00 | 0.00 | 12 | 1012.0 |
| 20260831104427 | 78 | 154 | 0.0 | 0.0 | 0.00 | 0.00 | 0.00 | 12 | 1012.0 |
| 20260831103923 | 77 | 152 | 0.0 | 0.0 | 0.00 | 0.00 | 0.00 | 13 | 1013.0 |
| 20260831103424 | 77 | 167 | 0.0 | 0.0 | 0.00 | 0.00 | 0.00 | 12 | 1013.0 |
| 20260831102923 | 78 | 162 | 0.0 | 0.0 | 0.00 | 0.00 | 0.00 | 12 | 1013.0 |
| 20260831102423 | 78 | 151 | 0.0 | 0.0 | 0.00 | 0.00 | 0.00 | 12 | 1012.0 |
| 20260831101924 | 79 | 148 | 0.0 | 0.0 | 0.00 | 0.00 | 0.00 | 12 | 1012.0 |
| 20260831101424 | 78 | 167 | 0.0 | 0.0 | 0.00 | 0.00 | 0.00 | 12 | 1012.0 |
| 20260831100423 | 79 | 159 | 0.0 | 0.0 | 0.00 | 0.00 | 0.00 | 12 | 1012.0 |
| 20260831095927 | 79 | 143 | 0.0 | 0.0 | 0.00 | 0.00 | 0.00 | 12 | 1012.0 |
| 20260831094924 | 78 | 169 | 0.0 | 0.0 | 0.00 | 0.00 | 0.00 | 12 | 1012.0 |
| 20260831094424 | 78 | 148 | 0.0 | 0.0 | 0.00 | 0.00 | 0.00 | 12 | 1012.0 |
| 20260831093926 | 78 | 159 | 0.0 | 0.0 | 0.00 | 0.00 | 0.00 | 12 | 1012.0 |
| 20260831093424 | 78 | 157 | 0.0 | 0.0 | 0.00 | 0.00 | 0.00 | 12 | 1012.0 |
| 20260831092926 | 78 | 159 | 0.0 | 0.0 | 0.00 | 0.00 | 0.00 | 12 | 1012.0 |
| 20260831092423 | 78 | 146 | 0.0 | 0.0 | 0.00 | 0.00 | 0.00 | 12 | 1012.0 |
| 20260831091923 | 77 | 157 | 0.0 | 0.0 | 0.00 | 0.00 | 0.00 | 13 | 1012.0 |
| 20260831091426 | 77 | 166 | 0.0 | 0.0 | 0.00 | 0.00 | 0.00 | 13 | 1012.0 |
| 20260831090923 | 77 | 170 | 0.0 | 0.0 | 0.00 | 0.00 | 0.00 | 13 | 1012.0 |
| 20260831090424 | 77 | 169 | 0.0 | 0.0 | 0.00 | 0.00 | 0.00 | 13 | 1012.0 |
| 20260831085926 | 77 | 149 | 0.0 | 0.0 | 0.00 | 0.00 | 0.00 | 13 | 1012.0 |
| 20260831085423 | 77 | 143 | 0.0 | 0.0 | 0.00 | 0.00 | 0.00 | 13 | 1012.0 |
| 20260831084923 | 76 | 143 | 0.0 | 0.0 | 0.00 | 0.00 | 0.00 | 13 | 1012.0 |
| 20260831084423 | 76 | 143 | 0.0 | 0.0 | 0.00 | 0.00 | 0.00 | 13 | 1012.0 |
| 20260831083926 | 76 | 168 | 0.0 | 0.0 | 0.00 | 0.00 | 0.00 | 13 | 1012.0 |
| 20260831083423 | 75 | 156 | 0.0 | 0.0 | 0.00 | 0.00 | 0.00 | 13 | 1012.0 |
| 20260831082925 | 75 | 159 | 0.0 | 0.0 | 0.00 | 0.00 | 0.00 | 13 | 1012.0 |
| 20260831082426 | 75 | 157 | 0.0 | 0.0 | 0.00 | 0.00 | 0.00 | 13 | 1012.0 |
| 20260831081426 | 74 | 143 | 0.0 | 0.0 | 0.00 | 0.00 | 0.00 | 13 | 1012.0 |
| 20260831080923 | 74 | 170 | 0.0 | 0.0 | 0.00 | 0.00 | 0.00 | 13 | 1012.0 |
| 20260831080423 | 73 | 163 | 0.0 | 0.0 | 0.00 | 0.00 | 0.00 | 13 | 1012.0 |
| 20260831075927 | 73 | 159 | 0.0 | 0.0 | 0.00 | 0.00 | 0.00 | 13 | 1012.0 |
| 20260831075423 | 73 | 146 | 0.0 | 0.0 | 0.00 | 0.00 | 0.00 | 13 | 1012.0 |
| 20260831074923 | 72 | 143 | 0.0 | 0.0 | 0.00 | 0.00 | 0.00 | 13 | 1012.0 |
| 20260831074426 | 72 | 145 | 0.0 | 0.0 | 0.00 | 0.00 | 0.00 | 14 | 1012.0 |
| 20260831073923 | 71 | 168 | 0.0 | 0.0 | 0.00 | 0.00 | 0.00 | 14 | 1012.0 |
| 20260831073423 | 71 | 168 | 0.0 | 0.0 | 0.00 | 0.00 | 0.00 | 14 | 1012.0 |
| 20260831072926 | 71 | 168 | 0.0 | 0.0 | 0.00 | 0.00 | 0.00 | 14 | 1012.0 |
| 20260831072426 | 71 | 163 | 0.0 | 0.0 | 0.00 | 0.00 | 0.00 | 14 | 1012.0 |
| 20260831071926 | 70 | 165 | 0.0 | 0.0 | 0.00 | 0.00 | 0.00 | 14 | 1012.0 |
| 20260831071423 | 70 | 168 | 0.0 | 0.0 | 0.00 | 0.00 | 0.00 | 14 | 1012.0 |
| 20260831070426 | 69 | 169 | 0.0 | 0.0 | 0.00 | 0.00 | 0.00 | 14 | 1012.0 |
| 20260831065923 | 69 | 142 | 0.0 | 0.0 | 0.00 | 0.00 | 0.00 | 14 | 1012.0 |
| 20260831065430 | 69 | 145 | 0.0 | 0.0 | 0.00 | 0.00 | 0.00 | 14 | 1012.0 |
| 20260831064923 | 68 | 147 | 0.0 | 0.0 | 0.00 | 0.00 | 0.00 | 15 | 1012.0 |
| 20260831063926 | 68 | 147 | 0.0 | 0.0 | 0.00 | 0.00 | 0.00 | 15 | 1012.0 |
| 20260831063423 | 67 | 162 | 0.0 | 0.0 | 0.00 | 0.00 | 0.00 | 12 | 1012.0 |
| 20260831062926 | 67 | 143 | 0.0 | 0.0 | 0.00 | 0.00 | 0.00 | 12 | 1012.0 |
| 20260831062422 | 66 | 168 | 0.0 | 0.0 | 0.00 | 0.00 | 0.00 | 12 | 1012.0 |
| 20260831061927 | 66 | 152 | 0.0 | 0.0 | 0.00 | 0.00 | 0.00 | 12 | 1012.0 |
| 20260831061423 | 66 | 162 | 0.0 | 0.0 | 0.00 | 0.00 | 0.00 | 10 | 1012.0 |
| 20260831060926 | 65 | 147 | 0.0 | 0.0 | 0.00 | 0.00 | 0.00 | 10 | 1012.0 |
| 20260831060426 | 65 | 169 | 0.0 | 0.0 | 0.00 | 0.00 | 0.00 | 10 | 1012.0 |